Home > Weather > Boca Raton > Past weeks

Flag for USA Past Weather in Boca Raton, Florida, USA — Yesterday and Last 2 Weeks

Now
84 °F

Sunny.


Feels Like: 96 °F
Forecast: 80 / 87 °F
Wind: 5 mph from Southwest

Location: Boca Raton Airport

Current Time: Jul 1, 2016 at 9:34:32 AM

Latest Report: Jul 1, 2016 at 7:53 AM


Visibility: 10 mi

Pressure: 30.04 "Hg

Humidity: 84%

Dew Point: 79 °F

Location of Boca RatonLocation

Past Weather in Boca Raton — Graph

°F

Boca Raton Temperature Yesterday

Maximum temperature yesterday: 88 °F (at 12:50 PM)
Minimum temperature yesterday: 77 °F (at 6:47 AM)
Average temperature yesterday: 83 °F

High & Low Weather Summary for the Past Weeks

 TemperatureHumidityPressure
High93 °F (Jun 18, 3:48 PM)100% (Jun 16, 9:58 PM)30.16 "Hg (Jun 16, 9:58 PM)
Low73 °F (Jun 18, 10:47 PM)53% (Jun 18, 3:48 PM)29.92 "Hg (Jun 17, 6:47 PM)
Average84 °F77%30.06 "Hg
* Reported Jun 16 7:47 AM — Jul 1 7:53 AM, Boca Raton, Weather by CustomWeather, © 2016

Note: Actual official high and low records may vary slightly from our data, if they occured in-between our weather recording intervals... More about our weather records

Advertising

Boca Raton Weather History for the Previous 24 Hours

Scroll right to see more
 ConditionsComfort  
Time TempWeatherWind HumidityBarometerVisibility
7:53 AM
Fri, Jul 1
84 °FSunny.5 mph84%30.04 "Hg10 mi
6:53 AM79 °FClear.5 mph94%30.03 "Hg10 mi
10:47 PM
Thu, Jun 30
77 °FPassing clouds.5 mph83%30.06 "Hg10 mi
9:47 PM79 °FPassing clouds.8 mph79%30.07 "Hg10 mi
8:53 PM79 °FPassing clouds.5 mph84%30.05 "Hg10 mi
7:53 PM79 °FPartly sunny.6 mph84%30.04 "Hg10 mi
6:47 PM86 °FBroken clouds.13 mph75%30.03 "Hg10 mi
5:47 PM86 °FPassing clouds.14 mph75%30.00 "Hg10 mi
4:50 PM88 °FPassing clouds.14 mph70%29.98 "Hg10 mi
3:56 PM86 °FSunny.9 mph75%29.99 "Hg10 mi
2:47 PM88 °FScattered clouds.13 mph75%30.01 "Hg10 mi
1:50 PM88 °FScattered clouds.10 mph75%30.02 "Hg10 mi
12:50 PM88 °FScattered clouds.9 mph75%30.03 "Hg10 mi
11:59 AM86 °FSunny.6 mph79%30.03 "Hg10 mi
10:49 AM81 °FScattered clouds.No wind94%30.04 "Hg10 mi
9:47 AM81 °FRain. Fog.9 mph89%30.05 "Hg1 mi
Weather by CustomWeather, © 2016

See weather overviewHow to use our weather pages